DAL821 KATL-KBOS

Flight info

Callsign DAL821
Flight time 2h 3m
Altitude 37000
Route PLMMR3 BURGG Q22 SHTGN/N0449F390 Q22 RBV Q419 JFK ROBUC3
Aircraft B752/M-SDE3FGHIM3RWXY/LB1

Departure

Time 2026-05-04 00:36
Airport Hartsfield Jackson Atlanta International Airport (KATL)

Arrival

Time 2026-05-04 02:39
Airport Boston Logan International Airport (KBOS)
Time Latitude Longitude Altitude Speed Heading
2026-05-04 00:05 33.64117 -84.43327 1012 ft 0 kts 78°
2026-05-04 00:23 33.64116 -84.43333 1012 ft 2 kts 78°
2026-05-04 00:23 33.64112 -84.43355 1012 ft 3 kts 82°
2026-05-04 00:24 33.64114 -84.43385 1012 ft 3 kts 112°
2026-05-04 00:24 33.64126 -84.43403 1012 ft 2 kts 158°
2026-05-04 00:24 33.64140 -84.43404 1012 ft 2 kts 189°
2026-05-04 00:24 33.64153 -84.43400 1012 ft 0 kts 198°
2026-05-04 00:25 33.64158 -84.43399 1012 ft 0 kts 181°
2026-05-04 00:27 33.64103 -84.43395 1012 ft 13 kts 177°
2026-05-04 00:27 33.64003 -84.43393 1012 ft 14 kts 180°
2026-05-04 00:28 33.63910 -84.43394 1012 ft 12 kts 180°
2026-05-04 00:28 33.63829 -84.43392 1012 ft 10 kts 179°
2026-05-04 00:28 33.63757 -84.43391 1012 ft 10 kts 180°
2026-05-04 00:28 33.63689 -84.43371 1012 ft 11 kts 141°
2026-05-04 00:29 33.63663 -84.43269 1011 ft 14 kts 92°
2026-05-04 00:29 33.63663 -84.43140 1009 ft 16 kts 90°
2026-05-04 00:29 33.63663 -84.43008 1009 ft 15 kts 90°
2026-05-04 00:29 33.63661 -84.42871 1007 ft 17 kts 91°
2026-05-04 00:30 33.63658 -84.42722 1004 ft 18 kts 93°
2026-05-04 00:30 33.63655 -84.42560 1001 ft 20 kts 90°
2026-05-04 00:30 33.63655 -84.42399 995 ft 18 kts 90°
2026-05-04 00:30 33.63653 -84.42233 989 ft 21 kts 92°
2026-05-04 00:31 33.63656 -84.42041 982 ft 24 kts 90°
2026-05-04 00:31 33.63655 -84.41821 970 ft 28 kts 91°
2026-05-04 00:31 33.63654 -84.41647 967 ft 18 kts 90°
2026-05-04 00:31 33.63655 -84.41489 964 ft 19 kts 90°
2026-05-04 00:32 33.63654 -84.41325 964 ft 19 kts 90°
2026-05-04 00:32 33.63654 -84.41165 964 ft 19 kts 91°
2026-05-04 00:32 33.63653 -84.41006 961 ft 19 kts 89°
2026-05-04 00:32 33.63651 -84.40858 956 ft 16 kts 88°
2026-05-04 00:33 33.63621 -84.40752 951 ft 11 kts 156°
2026-05-04 00:33 33.63580 -84.40745 950 ft 0 kts 180°
2026-05-04 00:34 33.63578 -84.40745 950 ft 1 kts 180°
2026-05-04 00:34 33.63525 -84.40745 950 ft 12 kts 181°
2026-05-04 00:34 33.63477 -84.40775 951 ft 3 kts 251°
2026-05-04 00:34 33.63473 -84.40803 953 ft 5 kts 265°
2026-05-04 00:35 33.63474 -84.40969 960 ft 46 kts 270°
2026-05-04 00:35 33.63474 -84.41627 968 ft 111 kts 270°
2026-05-04 00:35 33.63475 -84.42800 1054 ft 163 kts 271°
2026-05-04 00:35 33.63484 -84.44210 1440 ft 178 kts 271°
2026-05-04 00:36 33.63487 -84.45737 1959 ft 188 kts 271°
2026-05-04 00:36 33.63329 -84.47341 2386 ft 205 kts 251°
2026-05-04 00:36 33.62697 -84.48953 2808 ft 222 kts 246°
2026-05-04 00:36 33.62007 -84.50670 3233 ft 241 kts 246°
2026-05-04 00:37 33.61243 -84.52550 3734 ft 259 kts 246°
2026-05-04 00:37 33.60435 -84.54519 4452 ft 267 kts 246°
2026-05-04 00:37 33.59534 -84.56475 5310 ft 272 kts 233°
2026-05-04 00:37 33.58054 -84.57886 6119 ft 279 kts 204°
2026-05-04 00:38 33.56136 -84.58347 6940 ft 285 kts 183°
2026-05-04 00:38 33.54142 -84.58379 7717 ft 290 kts 182°
2026-05-04 00:38 33.52115 -84.58415 8483 ft 295 kts 182°
2026-05-04 00:38 33.50061 -84.58387 9273 ft 300 kts 174°
2026-05-04 00:39 33.48084 -84.57629 9980 ft 308 kts 148°
2026-05-04 00:39 33.46498 -84.55877 10629 ft 317 kts 124°
2026-05-04 00:39 33.45504 -84.53471 10948 ft 335 kts 105°
2026-05-04 00:39 33.45161 -84.50668 11286 ft 352 kts 87°
2026-05-04 00:40 33.45349 -84.47667 11624 ft 370 kts 84°
2026-05-04 00:40 33.45466 -84.44572 12443 ft 374 kts 86°
2026-05-04 00:40 33.45533 -84.41435 13165 ft 380 kts 88°
2026-05-04 00:40 33.45570 -84.38274 13889 ft 384 kts 86°
2026-05-04 00:41 33.46008 -84.35136 14508 ft 388 kts 70°
2026-05-04 00:41 33.47142 -84.32254 15252 ft 386 kts 54°
2026-05-04 00:41 33.48846 -84.29779 15825 ft 389 kts 43°
2026-05-04 00:41 33.50754 -84.27420 16507 ft 393 kts 44°
2026-05-04 00:42 33.52648 -84.25080 17128 ft 398 kts 43°
2026-05-04 00:42 33.54592 -84.22694 17764 ft 402 kts 43°
2026-05-04 00:42 33.56555 -84.20292 18330 ft 407 kts 43°
2026-05-04 00:42 33.58530 -84.17876 18949 ft 411 kts 43°
2026-05-04 00:43 33.60558 -84.15398 19600 ft 414 kts 43°
2026-05-04 00:43 33.62554 -84.12958 20188 ft 418 kts 43°
2026-05-04 00:43 33.64620 -84.10432 20769 ft 422 kts 43°
2026-05-04 00:43 33.66655 -84.07941 21316 ft 426 kts 43°
2026-05-04 00:44 33.68748 -84.05379 21890 ft 430 kts 43°
2026-05-04 00:44 33.70832 -84.02826 22410 ft 434 kts 43°
2026-05-04 00:44 33.72965 -84.00210 22981 ft 437 kts 43°
2026-05-04 00:44 33.75079 -83.97616 23504 ft 440 kts 43°
2026-05-04 00:45 33.77214 -83.94994 23999 ft 444 kts 43°
2026-05-04 00:45 33.79395 -83.92313 24483 ft 448 kts 43°
2026-05-04 00:45 33.81562 -83.89648 25042 ft 449 kts 43°
2026-05-04 00:45 33.83749 -83.86957 25420 ft 454 kts 43°
2026-05-04 00:46 33.85954 -83.84241 25931 ft 456 kts 43°
2026-05-04 00:46 33.88180 -83.81497 26363 ft 459 kts 43°
2026-05-04 00:46 33.90400 -83.78758 26881 ft 460 kts 43°
2026-05-04 00:46 33.92639 -83.75993 27239 ft 464 kts 43°
2026-05-04 00:47 33.94889 -83.73149 27666 ft 468 kts 46°
2026-05-04 00:47 33.96880 -83.70055 28117 ft 471 kts 50°
2026-05-04 00:47 33.98836 -83.66902 28409 ft 476 kts 50°
2026-05-04 00:47 34.00820 -83.63696 28826 ft 478 kts 50°
2026-05-04 00:48 34.02795 -83.60493 29208 ft 480 kts 50°
2026-05-04 00:48 34.04791 -83.57247 29539 ft 483 kts 51°
2026-05-04 00:48 34.06804 -83.53966 29913 ft 486 kts 50°
2026-05-04 00:48 34.08812 -83.50691 30248 ft 488 kts 51°
2026-05-04 00:49 34.10834 -83.47386 30523 ft 492 kts 51°
2026-05-04 00:49 34.12867 -83.44061 30743 ft 496 kts 51°
2026-05-04 00:49 34.14905 -83.40722 31060 ft 498 kts 50°
2026-05-04 00:49 34.16966 -83.37346 31303 ft 502 kts 51°
2026-05-04 00:50 34.19028 -83.33962 31725 ft 500 kts 51°
2026-05-04 00:50 34.21102 -83.30556 31974 ft 503 kts 51°
2026-05-04 00:50 34.23144 -83.27199 32296 ft 504 kts 51°
2026-05-04 00:50 34.25221 -83.23781 32564 ft 506 kts 51°
2026-05-04 00:51 34.27309 -83.20342 32943 ft 505 kts 51°
2026-05-04 00:51 34.29381 -83.16924 33305 ft 505 kts 51°
2026-05-04 00:51 34.31456 -83.13511 33522 ft 507 kts 51°
2026-05-04 00:51 34.33544 -83.10103 33842 ft 506 kts 51°
2026-05-04 00:52 34.35646 -83.06670 34200 ft 506 kts 51°
2026-05-04 00:52 34.37730 -83.03260 34470 ft 506 kts 51°
2026-05-04 00:52 34.39795 -82.99880 34716 ft 506 kts 51°
2026-05-04 00:52 34.41898 -82.96435 34864 ft 508 kts 51°
2026-05-04 00:53 34.44000 -82.92989 35097 ft 508 kts 51°
2026-05-04 00:53 34.46069 -82.89590 35317 ft 508 kts 51°
2026-05-04 00:53 34.48177 -82.86128 35488 ft 510 kts 51°
2026-05-04 00:53 34.50281 -82.82667 35737 ft 509 kts 50°
2026-05-04 00:54 34.52378 -82.79214 35878 ft 511 kts 51°
2026-05-04 00:54 34.54467 -82.75772 36018 ft 512 kts 51°
2026-05-04 00:54 34.56571 -82.72302 36269 ft 511 kts 51°
2026-05-04 00:54 34.58672 -82.68832 36401 ft 513 kts 51°
2026-05-04 00:55 34.60801 -82.65314 36574 ft 514 kts 51°
2026-05-04 00:55 34.62900 -82.61840 36810 ft 513 kts 51°
2026-05-04 00:55 34.64989 -82.58379 36999 ft 510 kts 50°
2026-05-04 00:56 34.69140 -82.51389 36989 ft 512 kts 51°
2026-05-04 00:56 34.73280 -82.44338 36968 ft 511 kts 51°
2026-05-04 00:57 34.77382 -82.37342 36973 ft 513 kts 52°
2026-05-04 00:57 34.81519 -82.30272 36966 ft 514 kts 52°
2026-05-04 00:58 34.85661 -82.23177 36971 ft 515 kts 52°
2026-05-04 00:58 34.89773 -82.16119 36974 ft 514 kts 52°
2026-05-04 00:59 34.93893 -82.09036 36969 ft 515 kts 52°
2026-05-04 00:59 34.98020 -82.01925 36963 ft 514 kts 52°
2026-05-04 01:00 35.02139 -81.94812 36959 ft 513 kts 52°
2026-05-04 01:00 35.06384 -81.87824 36955 ft 515 kts 50°
2026-05-04 01:01 35.10716 -81.80851 36959 ft 516 kts 50°
2026-05-04 01:01 35.15029 -81.73886 36953 ft 516 kts 50°
2026-05-04 01:02 35.19326 -81.66932 36963 ft 516 kts 50°
2026-05-04 01:02 35.23642 -81.59934 36975 ft 517 kts 50°
2026-05-04 01:03 35.27964 -81.52910 36976 ft 517 kts 50°
2026-05-04 01:03 35.32294 -81.45862 36975 ft 519 kts 50°
2026-05-04 01:04 35.36617 -81.38806 36977 ft 519 kts 50°
2026-05-04 01:04 35.40932 -81.31754 36952 ft 520 kts 50°
2026-05-04 01:05 35.45249 -81.24683 36962 ft 520 kts 50°
2026-05-04 01:05 35.49585 -81.17567 36967 ft 520 kts 50°
2026-05-04 01:06 35.53882 -81.10497 36970 ft 521 kts 50°
2026-05-04 01:06 35.58210 -81.03365 36970 ft 522 kts 50°
2026-05-04 01:07 35.62543 -80.96207 36972 ft 521 kts 50°
2026-05-04 01:07 35.66852 -80.89078 36975 ft 521 kts 50°
2026-05-04 01:08 35.71140 -80.81966 36971 ft 519 kts 50°
2026-05-04 01:08 35.75447 -80.74811 36979 ft 521 kts 50°
2026-05-04 01:09 35.79762 -80.67625 36977 ft 522 kts 50°
2026-05-04 01:09 35.84032 -80.60497 36980 ft 519 kts 49°
2026-05-04 01:10 35.88325 -80.53320 36996 ft 521 kts 50°
2026-05-04 01:10 35.92618 -80.46129 36983 ft 523 kts 50°
2026-05-04 01:11 35.96901 -80.38934 36994 ft 521 kts 50°
2026-05-04 01:11 36.01201 -80.31724 37006 ft 523 kts 50°
2026-05-04 01:12 36.05513 -80.24478 37000 ft 525 kts 50°
2026-05-04 01:12 36.09805 -80.17248 36998 ft 523 kts 50°
2026-05-04 01:13 36.14087 -80.10024 37000 ft 525 kts 50°
2026-05-04 01:13 36.18410 -80.02712 37004 ft 525 kts 50°
2026-05-04 01:14 36.22716 -79.95416 37005 ft 525 kts 50°
2026-05-04 01:14 36.27002 -79.88139 37003 ft 525 kts 50°
2026-05-04 01:15 36.31286 -79.80849 37002 ft 526 kts 50°
2026-05-04 01:15 36.35610 -79.73476 37003 ft 527 kts 50°
2026-05-04 01:16 36.39905 -79.66137 37007 ft 525 kts 50°
2026-05-04 01:16 36.44215 -79.58755 37013 ft 528 kts 50°
2026-05-04 01:17 36.48479 -79.51438 37007 ft 526 kts 50°
2026-05-04 01:17 36.52756 -79.44081 37008 ft 527 kts 50°
2026-05-04 01:18 36.57068 -79.36647 37011 ft 528 kts 49°
2026-05-04 01:18 36.61336 -79.29275 36984 ft 527 kts 50°
2026-05-04 01:19 36.65615 -79.21867 36997 ft 530 kts 50°
2026-05-04 01:19 36.69886 -79.14456 36992 ft 530 kts 50°
2026-05-04 01:20 36.74161 -79.07024 36995 ft 529 kts 50°
2026-05-04 01:20 36.78433 -78.99577 36997 ft 529 kts 50°
2026-05-04 01:21 36.82709 -78.92108 37002 ft 532 kts 50°
2026-05-04 01:21 36.86986 -78.84566 36992 ft 530 kts 50°
2026-05-04 01:22 36.91242 -78.77047 36995 ft 530 kts 50°
2026-05-04 01:22 36.95502 -78.69504 36995 ft 531 kts 50°
2026-05-04 01:23 36.99737 -78.61988 37004 ft 532 kts 50°
2026-05-04 01:23 37.03976 -78.54449 36997 ft 533 kts 50°
2026-05-04 01:24 37.08240 -78.46846 36982 ft 533 kts 50°
2026-05-04 01:24 37.12466 -78.39296 36985 ft 534 kts 50°
2026-05-04 01:25 37.16721 -78.31677 36974 ft 534 kts 51°
2026-05-04 01:25 37.20805 -78.23917 36975 ft 538 kts 57°
2026-05-04 01:26 37.24485 -78.15699 36968 ft 539 kts 57°
2026-05-04 01:26 37.28127 -78.07516 36974 ft 540 kts 58°
2026-05-04 01:27 37.31765 -77.99303 36974 ft 540 kts 57°
2026-05-04 01:27 37.35397 -77.91076 36977 ft 540 kts 58°
2026-05-04 01:28 37.39024 -77.82841 36977 ft 542 kts 58°
2026-05-04 01:28 37.42655 -77.74568 36982 ft 541 kts 57°
2026-05-04 01:29 37.46299 -77.66249 36985 ft 543 kts 57°
2026-05-04 01:29 37.49917 -77.57966 36988 ft 541 kts 57°
2026-05-04 01:30 37.53514 -77.49715 36991 ft 542 kts 57°
2026-05-04 01:30 37.57137 -77.41378 36996 ft 544 kts 57°
2026-05-04 01:31 37.60763 -77.33013 36983 ft 544 kts 58°
2026-05-04 01:31 37.64365 -77.24683 36977 ft 544 kts 58°
2026-05-04 01:32 37.68389 -77.16715 36992 ft 535 kts 44°
2026-05-04 01:32 37.73802 -77.10516 36994 ft 519 kts 25°
2026-05-04 01:33 37.79992 -77.05979 36984 ft 513 kts 21°
2026-05-04 01:33 37.86247 -77.01580 36996 ft 513 kts 20°
2026-05-04 01:34 37.92486 -76.97227 36981 ft 511 kts 20°
2026-05-04 01:34 37.98711 -76.92893 36993 ft 512 kts 20°
2026-05-04 01:35 38.04940 -76.88549 36979 ft 510 kts 20°
2026-05-04 01:35 38.11174 -76.84197 36979 ft 510 kts 20°
2026-05-04 01:36 38.17374 -76.79861 36978 ft 510 kts 20°
2026-05-04 01:36 38.23551 -76.75442 36974 ft 513 kts 25°
2026-05-04 01:37 38.29210 -76.69753 36964 ft 523 kts 33°
2026-05-04 01:37 38.31988 -76.66785 37150 ft 523 kts 33°
2026-05-04 01:37 38.34784 -76.63784 36984 ft 526 kts 33°
2026-05-04 01:38 38.40307 -76.57815 36973 ft 520 kts 33°
2026-05-04 01:38 38.45844 -76.51862 36980 ft 521 kts 33°
2026-05-04 01:39 38.51364 -76.45938 36973 ft 521 kts 33°
2026-05-04 01:39 38.56910 -76.39971 36975 ft 521 kts 33°
2026-05-04 01:40 38.62394 -76.34058 36962 ft 517 kts 33°
2026-05-04 01:40 38.67905 -76.28108 36949 ft 521 kts 34°
2026-05-04 01:41 38.73439 -76.22114 36952 ft 521 kts 33°
2026-05-04 01:41 38.78950 -76.16135 36951 ft 520 kts 34°
2026-05-04 01:42 38.84439 -76.10168 36954 ft 523 kts 34°
2026-05-04 01:42 38.89984 -76.04125 36947 ft 520 kts 33°
2026-05-04 01:43 38.95459 -75.98148 36953 ft 521 kts 34°
2026-05-04 01:43 39.00841 -75.91814 36949 ft 522 kts 36°
2026-05-04 01:44 39.06137 -75.85502 36938 ft 523 kts 36°
2026-05-04 01:44 39.11441 -75.79170 36944 ft 521 kts 37°
2026-05-04 01:45 39.16743 -75.72830 36942 ft 522 kts 36°
2026-05-04 01:45 39.24686 -75.63304 36944 ft 520 kts 37°
2026-05-04 01:46 39.29974 -75.56946 36954 ft 521 kts 36°
2026-05-04 01:46 39.35245 -75.50594 36955 ft 519 kts 36°
2026-05-04 01:47 39.40538 -75.44203 36948 ft 519 kts 36°
2026-05-04 01:47 39.45753 -75.37891 36949 ft 518 kts 36°
2026-05-04 01:48 39.51020 -75.31506 36936 ft 519 kts 37°
2026-05-04 01:48 39.56272 -75.25121 36933 ft 517 kts 37°
2026-05-04 01:49 39.61493 -75.18761 36924 ft 517 kts 37°
2026-05-04 01:49 39.66713 -75.12388 36925 ft 516 kts 37°
2026-05-04 01:50 39.72072 -75.06269 36931 ft 514 kts 35°
2026-05-04 01:50 39.77475 -75.00197 36919 ft 514 kts 34°
2026-05-04 01:51 39.82838 -74.94146 36923 ft 514 kts 35°
2026-05-04 01:51 39.88227 -74.88043 36932 ft 510 kts 35°
2026-05-04 01:52 39.93807 -74.82458 36923 ft 507 kts 27°
2026-05-04 01:52 39.99580 -74.77209 36918 ft 505 kts 28°
2026-05-04 01:53 40.05018 -74.71327 36932 ft 516 kts 41°
2026-05-04 01:53 40.09885 -74.64414 36921 ft 518 kts 42°
2026-05-04 01:54 40.14707 -74.57502 36918 ft 517 kts 42°
2026-05-04 01:54 40.19542 -74.50588 36918 ft 514 kts 39°
2026-05-04 01:55 40.24903 -74.44590 36913 ft 509 kts 33°
2026-05-04 01:55 40.30372 -74.38723 36911 ft 507 kts 33°
2026-05-04 01:56 40.35788 -74.32918 36883 ft 506 kts 34°
2026-05-04 01:56 40.38506 -74.29998 36661 ft 496 kts 34°
2026-05-04 01:56 40.41166 -74.27139 36323 ft 495 kts 34°
2026-05-04 01:57 40.43837 -74.24274 35970 ft 502 kts 34°
2026-05-04 01:57 40.46528 -74.21381 35610 ft 506 kts 34°
2026-05-04 01:57 40.49240 -74.18456 35218 ft 505 kts 34°
2026-05-04 01:57 40.51803 -74.15297 34830 ft 508 kts 43°
2026-05-04 01:58 40.54013 -74.11622 34460 ft 512 kts 52°
2026-05-04 01:58 40.55779 -74.07567 34073 ft 518 kts 61°
2026-05-04 01:58 40.57107 -74.03168 33665 ft 524 kts 69°
2026-05-04 01:58 40.58215 -73.98644 33302 ft 525 kts 69°
2026-05-04 01:59 40.59322 -73.94056 32950 ft 523 kts 70°
2026-05-04 01:59 40.60396 -73.89523 32597 ft 519 kts 70°
2026-05-04 01:59 40.61453 -73.85027 32248 ft 516 kts 69°
2026-05-04 01:59 40.62694 -73.80605 31898 ft 511 kts 61°
2026-05-04 02:00 40.64372 -73.76545 31543 ft 506 kts 52°
2026-05-04 02:00 40.66467 -73.72872 31187 ft 498 kts 44°
2026-05-04 02:00 40.68706 -73.69476 30731 ft 495 kts 43°
2026-05-04 02:00 40.70969 -73.66076 30194 ft 490 kts 43°
2026-05-04 02:01 40.73190 -73.62770 29658 ft 483 kts 43°
2026-05-04 02:01 40.75426 -73.59459 29115 ft 477 kts 43°
2026-05-04 02:01 40.77609 -73.56236 28583 ft 473 kts 42°
2026-05-04 02:01 40.79792 -73.53020 28054 ft 471 kts 42°
2026-05-04 02:02 40.81972 -73.49809 27519 ft 467 kts 42°
2026-05-04 02:02 40.84099 -73.46672 27020 ft 461 kts 42°
2026-05-04 02:02 40.86210 -73.43555 26952 ft 449 kts 42°
2026-05-04 02:02 40.88288 -73.40494 26961 ft 457 kts 42°
2026-05-04 02:03 40.90434 -73.37333 26959 ft 465 kts 42°
2026-05-04 02:03 40.92602 -73.34125 26949 ft 462 kts 43°
2026-05-04 02:03 40.94725 -73.30981 26947 ft 460 kts 43°
2026-05-04 02:03 40.96843 -73.27846 26954 ft 462 kts 43°
2026-05-04 02:04 40.99011 -73.24630 26947 ft 462 kts 43°
2026-05-04 02:04 41.01124 -73.21493 26944 ft 461 kts 43°
2026-05-04 02:04 41.03245 -73.18342 26925 ft 458 kts 43°
2026-05-04 02:04 41.05369 -73.15182 26338 ft 457 kts 43°
2026-05-04 02:05 41.07461 -73.12064 25789 ft 452 kts 43°
2026-05-04 02:05 41.09513 -73.09005 25148 ft 449 kts 43°
2026-05-04 02:05 41.11589 -73.05907 24580 ft 443 kts 43°
2026-05-04 02:05 41.13623 -73.02869 23935 ft 440 kts 43°
2026-05-04 02:06 41.15629 -72.99868 23400 ft 433 kts 43°
2026-05-04 02:06 41.17597 -72.96922 22938 ft 425 kts 43°
2026-05-04 02:06 41.19509 -72.94051 22939 ft 413 kts 42°
2026-05-04 02:06 41.21319 -72.90940 22964 ft 435 kts 53°
2026-05-04 02:07 41.22779 -72.87371 22953 ft 445 kts 58°
2026-05-04 02:07 41.24160 -72.83726 22950 ft 442 kts 58°
2026-05-04 02:07 41.25547 -72.80093 22946 ft 440 kts 58°
2026-05-04 02:07 41.26919 -72.76499 22947 ft 442 kts 58°
2026-05-04 02:08 41.28315 -72.72841 22958 ft 441 kts 58°
2026-05-04 02:08 41.29689 -72.69235 22946 ft 441 kts 58°
2026-05-04 02:08 41.31073 -72.65601 22950 ft 441 kts 58°
2026-05-04 02:08 41.32447 -72.61991 22950 ft 442 kts 58°
2026-05-04 02:09 41.33835 -72.58337 22946 ft 441 kts 58°
2026-05-04 02:09 41.35229 -72.54665 22948 ft 441 kts 58°
2026-05-04 02:09 41.36583 -72.51087 22943 ft 434 kts 58°
2026-05-04 02:09 41.37938 -72.47505 22942 ft 429 kts 58°
2026-05-04 02:10 41.39269 -72.43986 22950 ft 426 kts 58°
2026-05-04 02:10 41.40597 -72.40472 22946 ft 426 kts 58°
2026-05-04 02:10 41.41917 -72.36975 22940 ft 427 kts 58°
2026-05-04 02:10 41.43264 -72.33398 22936 ft 427 kts 58°
2026-05-04 02:11 41.44588 -72.29879 22934 ft 426 kts 58°
2026-05-04 02:11 41.45905 -72.26374 22930 ft 426 kts 58°
2026-05-04 02:11 41.47224 -72.22874 22934 ft 427 kts 58°
2026-05-04 02:11 41.48535 -72.19342 22927 ft 426 kts 59°
2026-05-04 02:12 41.49840 -72.15772 22929 ft 425 kts 59°
2026-05-04 02:12 41.51136 -72.12232 22924 ft 426 kts 59°
2026-05-04 02:12 41.52430 -72.08694 22919 ft 427 kts 59°
2026-05-04 02:12 41.53735 -72.05123 22926 ft 426 kts 59°
2026-05-04 02:13 41.55028 -72.01577 22918 ft 425 kts 59°
2026-05-04 02:13 41.56211 -71.98016 22925 ft 427 kts 64°
2026-05-04 02:13 41.57308 -71.94312 22917 ft 429 kts 63°
2026-05-04 02:13 41.58416 -71.90629 22918 ft 429 kts 63°
2026-05-04 02:14 41.59531 -71.86907 22918 ft 429 kts 63°
2026-05-04 02:14 41.60617 -71.83242 22806 ft 430 kts 63°
2026-05-04 02:14 41.61713 -71.79536 22647 ft 428 kts 63°
2026-05-04 02:14 41.62798 -71.75857 22499 ft 423 kts 63°
2026-05-04 02:15 41.63873 -71.72208 22390 ft 421 kts 63°
2026-05-04 02:15 41.64939 -71.68594 22265 ft 424 kts 63°
2026-05-04 02:15 41.66020 -71.64914 22139 ft 417 kts 63°
2026-05-04 02:15 41.67051 -71.61389 22134 ft 399 kts 63°
2026-05-04 02:16 41.68034 -71.58026 22123 ft 382 kts 63°
2026-05-04 02:16 41.68996 -71.54746 21630 ft 385 kts 63°
2026-05-04 02:16 41.69980 -71.51394 21122 ft 385 kts 63°
2026-05-04 02:16 41.70940 -71.48100 20696 ft 380 kts 63°
2026-05-04 02:17 41.71894 -71.44833 20148 ft 380 kts 62°
2026-05-04 02:17 41.73002 -71.41631 19461 ft 377 kts 53°
2026-05-04 02:17 41.74310 -71.38643 19092 ft 370 kts 53°
2026-05-04 02:17 41.75574 -71.35696 18723 ft 365 kts 53°
2026-05-04 02:18 41.76822 -71.32780 18376 ft 358 kts 53°
2026-05-04 02:18 41.78061 -71.29885 17836 ft 359 kts 53°
2026-05-04 02:18 41.79279 -71.27025 17609 ft 349 kts 53°
2026-05-04 02:18 41.80488 -71.24194 17179 ft 350 kts 53°
2026-05-04 02:19 41.81683 -71.21389 16744 ft 350 kts 53°
2026-05-04 02:19 41.82888 -71.18558 16262 ft 348 kts 53°
2026-05-04 02:19 41.84071 -71.15772 15822 ft 345 kts 53°
2026-05-04 02:19 41.85242 -71.13007 15630 ft 332 kts 53°
2026-05-04 02:20 41.86363 -71.10391 15482 ft 323 kts 52°
2026-05-04 02:20 41.87513 -71.07750 15026 ft 328 kts 52°
2026-05-04 02:20 41.88647 -71.05127 14594 ft 326 kts 53°
2026-05-04 02:20 41.89775 -71.02516 14168 ft 324 kts 52°
2026-05-04 02:21 41.90905 -70.99895 13748 ft 322 kts 52°
2026-05-04 02:21 41.92023 -70.97300 13355 ft 319 kts 52°
2026-05-04 02:21 41.93125 -70.94740 12988 ft 316 kts 52°
2026-05-04 02:21 41.94206 -70.92229 12596 ft 313 kts 52°
2026-05-04 02:22 41.95294 -70.89697 12188 ft 311 kts 52°
2026-05-04 02:22 41.96363 -70.87209 11789 ft 309 kts 52°
2026-05-04 02:22 41.97432 -70.84717 11414 ft 305 kts 52°
2026-05-04 02:22 41.98481 -70.82271 11053 ft 302 kts 52°
2026-05-04 02:23 41.99529 -70.79826 10689 ft 301 kts 52°
2026-05-04 02:23 42.00573 -70.77395 10320 ft 300 kts 51°
2026-05-04 02:23 42.01762 -70.75176 9969 ft 289 kts 39°
2026-05-04 02:23 42.03094 -70.73225 9675 ft 284 kts 40°
2026-05-04 02:24 42.04414 -70.71252 9397 ft 279 kts 40°
2026-05-04 02:24 42.05684 -70.69353 9119 ft 275 kts 40°
2026-05-04 02:24 42.06954 -70.67453 8832 ft 272 kts 40°
2026-05-04 02:24 42.08215 -70.65566 8554 ft 271 kts 40°
2026-05-04 02:25 42.09491 -70.63654 8270 ft 272 kts 40°
2026-05-04 02:25 42.10896 -70.62078 7999 ft 258 kts 18°
2026-05-04 02:25 42.12564 -70.61435 7750 ft 250 kts
2026-05-04 02:25 42.14289 -70.61005 7435 ft 252 kts
2026-05-04 02:26 42.16002 -70.60588 7121 ft 250 kts
2026-05-04 02:26 42.17713 -70.60194 6827 ft 248 kts
2026-05-04 02:26 42.19396 -70.59817 6541 ft 245 kts
2026-05-04 02:26 42.21081 -70.59447 6280 ft 241 kts
2026-05-04 02:27 42.22704 -70.59094 6060 ft 236 kts
2026-05-04 02:27 42.24314 -70.58746 5893 ft 231 kts
2026-05-04 02:27 42.25917 -70.58403 5762 ft 234 kts
2026-05-04 02:27 42.27530 -70.58061 5505 ft 240 kts
2026-05-04 02:28 42.29213 -70.57700 5091 ft 243 kts
2026-05-04 02:28 42.30854 -70.57345 4958 ft 233 kts
2026-05-04 02:28 42.32392 -70.57011 4971 ft 218 kts
2026-05-04 02:28 42.33857 -70.56694 4960 ft 207 kts
2026-05-04 02:29 42.35265 -70.56254 4980 ft 209 kts
2026-05-04 02:29 42.36668 -70.55703 5020 ft 211 kts
2026-05-04 02:29 42.38056 -70.55164 4987 ft 205 kts
2026-05-04 02:29 42.39411 -70.54631 4965 ft 199 kts
2026-05-04 02:30 42.40739 -70.54109 4972 ft 201 kts
2026-05-04 02:30 42.42096 -70.53610 4929 ft 203 kts
2026-05-04 02:30 42.43423 -70.53887 4814 ft 188 kts 327°
2026-05-04 02:30 42.44249 -70.55170 4752 ft 185 kts 291°
2026-05-04 02:31 42.44248 -70.56918 4701 ft 197 kts 256°
2026-05-04 02:31 42.43641 -70.58610 4639 ft 201 kts 251°
2026-05-04 02:31 42.43109 -70.60336 4538 ft 198 kts 254°
2026-05-04 02:31 42.42603 -70.62050 4439 ft 196 kts 254°
2026-05-04 02:32 42.42139 -70.63789 4338 ft 194 kts 261°
2026-05-04 02:32 42.41835 -70.65572 4237 ft 193 kts 263°
2026-05-04 02:32 42.41548 -70.67328 4134 ft 192 kts 263°
2026-05-04 02:32 42.41245 -70.69106 3990 ft 195 kts 262°
2026-05-04 02:33 42.40930 -70.70887 3713 ft 196 kts 262°
2026-05-04 02:33 42.40616 -70.72656 3454 ft 190 kts 262°
2026-05-04 02:33 42.40313 -70.74373 3227 ft 187 kts 262°
2026-05-04 02:33 42.40017 -70.76077 3018 ft 188 kts 262°
2026-05-04 02:34 42.39722 -70.77740 2964 ft 171 kts 262°
2026-05-04 02:34 42.39462 -70.79195 2989 ft 146 kts 263°
2026-05-04 02:34 42.39240 -70.80431 2802 ft 127 kts 264°
2026-05-04 02:34 42.39046 -70.81524 2593 ft 111 kts 265°
2026-05-04 02:35 42.38874 -70.82526 2450 ft 110 kts 265°
2026-05-04 02:35 42.38700 -70.83565 2339 ft 116 kts 265°
2026-05-04 02:35 42.38516 -70.84623 2184 ft 116 kts 264°
2026-05-04 02:35 42.38331 -70.85684 2030 ft 115 kts 264°
2026-05-04 02:36 42.38148 -70.86725 1872 ft 114 kts 264°
2026-05-04 02:36 42.37967 -70.87760 1717 ft 113 kts 264°
2026-05-04 02:36 42.37787 -70.88792 1565 ft 115 kts 264°
2026-05-04 02:36 42.37599 -70.89864 1406 ft 116 kts 263°
2026-05-04 02:37 42.37423 -70.90927 1226 ft 117 kts 263°
2026-05-04 02:37 42.37230 -70.91998 1043 ft 118 kts 259°
2026-05-04 02:37 42.37019 -70.93063 880 ft 118 kts 259°
2026-05-04 02:37 42.36826 -70.94161 755 ft 118 kts 260°
2026-05-04 02:38 42.36650 -70.95225 602 ft 116 kts 259°
2026-05-04 02:38 42.36454 -70.96298 478 ft 118 kts 258°
2026-05-04 02:38 42.36265 -70.97398 283 ft 122 kts 257°
2026-05-04 02:38 42.36059 -70.98543 105 ft 129 kts 256°
2026-05-04 02:39 42.35863 -70.99679 12 ft 112 kts 255°
2026-05-04 02:39 42.35738 -71.00369 14 ft 47 kts 257°
2026-05-04 02:39 42.35679 -71.00701 16 ft 19 kts 257°
2026-05-04 02:39 42.35654 -71.00845 18 ft 16 kts 257°
2026-05-04 02:40 42.35635 -71.01002 18 ft 16 kts 268°
2026-05-04 02:40 42.35657 -71.01145 21 ft 14 kts 297°
2026-05-04 02:40 42.35708 -71.01240 22 ft 5 kts 309°
2026-05-04 02:40 42.35730 -71.01285 22 ft 6 kts 298°
2026-05-04 02:41 42.35752 -71.01350 22 ft 8 kts 291°
2026-05-04 02:41 42.35775 -71.01433 22 ft 11 kts 289°
2026-05-04 02:41 42.35808 -71.01542 21 ft 12 kts 310°
2026-05-04 02:41 42.35873 -71.01595 20 ft 11 kts 306°
2026-05-04 02:42 42.35903 -71.01704 18 ft 12 kts 283°
2026-05-04 02:42 42.35922 -71.01798 18 ft 8 kts 297°
2026-05-04 02:42 42.35965 -71.01843 18 ft 6 kts 352°
2026-05-04 02:42 42.35992 -71.01833 18 ft 0 kts 21°